Atlanta Dekalb, GA

11:54 PM EDT on June 23, 2017 (GMT -0400)
Dekalb-Peachtree

Weather History for KPDK - February, 2013

Change the Weather History Date:

Monday, February 25, 2013

  Actual Average Record
Temperature  
Mean Temperature 44 °F 48 °F  
Max Temperature 48 °F 59 °F 73 °F (1998)
Min Temperature 39 °F 38 °F 29 °F (2015)
Degree Days  
Heating Degree Days 22 17  
Month to date heating degree days 478  
Since 1 July heating degree days 2351  
Moisture  
Dew Point 32 °F    
Average Humidity 65    
Maximum Humidity 100    
Minimum Humidity 46    
Precipitation  
Precipitation 0.00 in 0.20 in 0.75 in (2006)
Month to date precipitation 4.39  
Year to date precipitation 9.19  
Snow  
Snow 0.00 in - - ()
Month to date snowfall  
Since 1 July snowfall  
Snow Depth -    
Sea Level Pressure  
Sea Level Pressure 29.94 in    
Wind  
Wind Speed 6 mph (ENE)    
Max Wind Speed 15 mph    
Max Gust Speed 23 mph    
Visibility 8 miles    
Events Rain    
T = Trace of Precipitation, MM = Missing Value Source: NWS Daily Summary

Daily Weather History Graph

Daily Weather History Graph

Search for Another Location

Airport or City:

Trip Planner

Search our weather history database for the weather conditions in past years. The results will help you decide how hot, cold, wet, or windy it might be!

Date:

Astronomy

Feb. 25, 2013 Rise Set
Actual Time 7:10 AM EST 6:30 PM EST
Civil Twilight 6:45 AM EST 6:55 PM EST
Nautical Twilight 6:16 AM EST 7:24 PM EST
Astronomical Twilight 5:47 AM EST 7:53 PM EST
Moon 6:39 PM EST (2/25) 6:41 AM EST (2/25)
Length of Visible Light 12h 10m
Length of Day
11h 20m
Full, 100% of the Moon is Illuminated
Feb 25
Full
Feb 25
Full
Mar 4
Last Quarter
Mar 11
New
Mar 19
First Quarter

Hourly Weather History & Observations

Time (EST) Temp. Windchill Dew Point Humidity Pressure Visibility Wind Dir Wind Speed Gust Speed Precip Events Conditions
12:53 AM 41.0 °F - 32.0 °F 70% 29.98 in 10.0 mi Calm Calm - N/A   Clear
1:53 AM 39.9 °F - 35.1 °F 83% 29.96 in 10.0 mi Calm Calm - N/A   Clear
2:53 AM 41.0 °F 38.0 °F 34.0 °F 76% 29.95 in 10.0 mi NE 4.6 mph - N/A   Clear
3:53 AM 44.1 °F - 32.0 °F 63% 29.93 in 10.0 mi Calm Calm - N/A   Clear
4:53 AM 46.0 °F 43.9 °F 28.9 °F 51% 29.95 in 10.0 mi Variable 4.6 mph - N/A   Clear
5:53 AM 46.0 °F 41.9 °F 28.9 °F 51% 29.96 in 10.0 mi ENE 8.1 mph - N/A   Clear
6:53 AM 46.0 °F 41.9 °F 28.9 °F 51% 29.98 in 10.0 mi East 8.1 mph 18.4 mph N/A   Mostly Cloudy
7:53 AM 46.0 °F 41.9 °F 28.0 °F 50% 30.01 in 10.0 mi East 8.1 mph 16.1 mph N/A   Mostly Cloudy
8:53 AM 46.0 °F 41.9 °F 27.0 °F 47% 30.03 in 10.0 mi ENE 8.1 mph 19.6 mph N/A   Overcast
9:53 AM 46.9 °F - 27.0 °F 46% 30.07 in 10.0 mi East 8.1 mph - N/A   Overcast
10:53 AM 46.9 °F - 27.0 °F 46% 30.05 in 10.0 mi East 9.2 mph 20.7 mph N/A   Overcast
11:53 AM 46.9 °F - 27.0 °F 46% 29.97 in 10.0 mi NE 9.2 mph 19.6 mph N/A   Mostly Cloudy
12:53 PM 46.9 °F - 27.0 °F 46% 30.01 in 10.0 mi ENE 9.2 mph 23.0 mph N/A   Overcast
1:01 PM 46.4 °F 42.4 °F 26.6 °F 46% 29.98 in 10.0 mi ENE 8.1 mph 21.9 mph N/A   Overcast
1:37 PM 46.4 °F 41.1 °F 28.4 °F 50% 29.96 in 10.0 mi ENE 11.5 mph 19.6 mph N/A   Overcast
1:53 PM 46.9 °F - 28.0 °F 48% 29.99 in 10.0 mi Variable 5.8 mph 21.9 mph N/A   Overcast
2:53 PM 48.0 °F - 28.9 °F 48% 29.95 in 10.0 mi ENE 15.0 mph 23.0 mph N/A   Overcast
2:57 PM 48.2 °F - 28.4 °F 46% 29.92 in 10.0 mi ENE 12.7 mph 23.0 mph N/A   Overcast
3:53 PM 48.0 °F - 30.0 °F 50% 29.93 in 10.0 mi East 9.2 mph 23.0 mph N/A   Overcast
4:00 PM 48.2 °F - 30.2 °F 50% 29.91 in 10.0 mi ENE 10.4 mph 17.3 mph N/A   Overcast
4:53 PM 48.0 °F - 30.9 °F 52% 29.91 in 10.0 mi ENE 9.2 mph 20.7 mph N/A   Overcast
5:53 PM 46.9 °F - 34.0 °F 61% 29.91 in 10.0 mi East 10.4 mph 21.9 mph N/A   Overcast
6:53 PM 45.0 °F 38.9 °F 37.0 °F 74% 29.92 in 10.0 mi ESE 12.7 mph 21.9 mph N/A   Overcast
7:53 PM 44.1 °F 39.0 °F 37.0 °F 76% 29.94 in 10.0 mi East 9.2 mph - N/A   Overcast
8:31 PM 42.8 °F 38.6 °F 37.4 °F 81% 29.90 in 9.0 mi East 6.9 mph 19.6 mph N/A   Overcast
8:53 PM 42.1 °F 36.1 °F 37.9 °F 85% 29.93 in 6.0 mi East 10.4 mph 20.7 mph N/A   Overcast
9:53 PM 41.0 °F 34.7 °F 39.0 °F 93% 29.89 in 5.0 mi ENE 10.4 mph 18.4 mph N/A   Overcast
10:33 PM 39.2 °F 34.2 °F 39.2 °F 100% 29.88 in 2.5 mi Variable 6.9 mph 20.7 mph 0.00 in Rain Light Rain
10:53 PM 39.9 °F 32.9 °F 39.0 °F 97% 29.90 in 2.5 mi ENE 11.5 mph 20.7 mph 0.00 in Rain Light Rain
11:03 PM 39.2 °F 32.0 °F 37.4 °F 93% 29.88 in 3.0 mi East 11.5 mph 23.0 mph 0.00 in   Overcast
11:11 PM 39.2 °F 34.2 °F 37.4 °F 93% 29.87 in 2.5 mi ENE 6.9 mph 23.0 mph 0.00 in   Overcast
11:26 PM 39.2 °F 33.6 °F 37.4 °F 93% 29.85 in 3.0 mi East 8.1 mph 20.7 mph 0.00 in Rain Light Rain
11:53 PM 39.0 °F 33.4 °F 37.9 °F 96% 29.89 in 5.0 mi East 8.1 mph 18.4 mph 0.00 in Rain Light Rain